| time (UTC) | temp C | wind direction | speed KPH | gust KPH | rain 1hr cm | rain 24hr cm | rain mn cm | humidity % | barometer mb |
| 20260506025016 | 9 | 216 | 37.0 | 67.6 | 0.00 | 0.00 | 0.00 | 100 | 889.4 |
| 20260506024513 | 9 | 216 | 38.6 | 70.8 | 0.00 | 0.00 | 0.00 | 100 | 891.1 |
| 20260506024011 | 9 | 216 | 38.6 | 62.8 | 0.00 | 0.00 | 0.00 | 100 | 896.8 |
| 20260506023510 | 9 | 216 | 37.0 | 62.8 | 0.00 | 0.00 | 0.00 | 100 | 895.8 |
| 20260506023210 | 10 | 217 | 40.2 | 66.0 | 0.00 | 0.00 | 0.00 | 100 | 889.0 |
| 20260506023008 | 9 | 217 | 35.4 | 66.0 | 0.00 | 0.00 | 0.00 | 100 | 890.2 |
| 20260506022506 | 9 | 213 | 35.4 | 66.0 | 0.00 | 0.00 | 0.00 | 100 | 892.0 |
| 20260506022004 | 10 | 216 | 32.2 | 61.2 | 0.00 | 0.00 | 0.00 | 100 | 890.4 |
| 20260506021502 | 10 | 209 | 35.4 | 66.0 | 0.00 | 0.00 | 0.00 | 100 | 890.4 |
| 20260506021000 | 10 | 218 | 35.4 | 59.5 | 0.00 | 0.00 | 0.00 | 100 | 893.3 |
| 20260506020456 | 10 | 214 | 38.6 | 66.0 | 0.00 | 0.00 | 0.00 | 100 | 892.1 |
| 20260506015955 | 10 | 220 | 38.6 | 59.5 | 0.00 | 0.00 | 0.00 | 100 | 888.7 |
| 20260506015451 | 10 | 218 | 38.6 | 62.8 | 0.00 | 0.00 | 0.00 | 100 | 892.3 |
| 20260506014950 | 10 | 221 | 45.1 | 70.8 | 0.00 | 0.00 | 0.00 | 100 | 888.2 |
| 20260506014449 | 10 | 215 | 40.2 | 72.4 | 0.00 | 0.00 | 0.00 | 100 | 896.6 |
| 20260506013947 | 10 | 217 | 43.5 | 70.8 | 0.00 | 0.00 | 0.00 | 100 | 888.0 |
| 20260506013442 | 10 | 215 | 41.8 | 67.6 | 0.00 | 0.00 | 0.00 | 100 | 889.6 |
| 20260506012940 | 10 | 222 | 38.6 | 67.6 | 0.00 | 0.00 | 0.00 | 100 | 891.9 |
| 20260506012438 | 10 | 221 | 37.0 | 64.4 | 0.00 | 0.00 | 0.00 | 100 | 890.6 |
| 20260506011935 | 10 | 221 | 33.8 | 62.8 | 0.00 | 0.00 | 0.00 | 100 | 894.5 |
| 20260506011433 | 10 | 209 | 33.8 | 54.7 | 0.00 | 0.00 | 0.00 | 100 | 890.6 |
| 20260506010932 | 10 | 215 | 30.6 | 48.3 | 0.00 | 0.00 | 0.00 | 100 | 896.2 |
| 20260506010419 | 10 | 209 | 27.4 | 45.1 | 0.00 | 0.00 | 0.00 | 100 | 897.5 |
| 20260506005916 | 10 | 204 | 27.4 | 53.1 | 0.00 | 0.00 | 0.00 | 100 | 890.0 |
| 20260506005516 | 10 | 221 | 32.2 | 59.5 | 0.00 | 0.00 | 0.00 | 100 | 889.3 |
| 20260506005413 | 10 | 221 | 32.2 | 59.5 | 0.00 | 0.00 | 0.00 | 100 | 891.9 |
| 20260506004913 | 11 | 212 | 29.0 | 54.7 | 0.00 | 0.00 | 0.00 | 100 | 889.8 |
| 20260506004410 | 11 | 217 | 37.0 | 56.3 | 0.00 | 0.00 | 0.00 | 100 | 888.8 |
| 20260506003908 | 11 | 217 | 37.0 | 64.4 | 0.00 | 0.00 | 0.00 | 100 | 895.7 |
| 20260506003406 | 11 | 219 | 37.0 | 67.6 | 0.00 | 0.00 | 0.00 | 100 | 894.0 |
| 20260506002903 | 11 | 217 | 38.6 | 64.4 | 0.00 | 0.00 | 0.00 | 100 | 889.2 |
| 20260506002401 | 11 | 218 | 41.8 | 78.9 | 0.00 | 0.00 | 0.00 | 100 | 898.1 |
| 20260506001859 | 11 | 216 | 37.0 | 85.3 | 0.00 | 0.00 | 0.00 | 100 | 896.5 |
| 20260506001359 | 11 | 215 | 41.8 | 69.2 | 0.00 | 0.00 | 0.00 | 100 | 889.0 |
| 20260506000857 | 11 | 215 | 41.8 | 78.9 | 0.00 | 0.00 | 0.00 | 100 | 897.3 |
| 20260506000355 | 11 | 217 | 35.4 | 77.2 | 0.00 | 0.00 | 0.00 | 100 | 895.3 |
| 20260505235854 | 11 | 218 | 37.0 | 64.4 | 0.00 | 0.00 | 0.00 | 100 | 889.7 |
| 20260505235353 | 11 | 215 | 40.2 | 69.2 | 0.00 | 0.00 | 0.00 | 100 | 889.7 |
| 20260505234851 | 12 | 217 | 41.8 | 70.8 | 0.00 | 0.00 | 0.00 | 100 | 892.7 |
| 20260505234349 | 12 | 215 | 41.8 | 77.2 | 0.00 | 0.00 | 0.00 | 100 | 890.0 |
| 20260505233848 | 12 | 210 | 38.6 | 77.2 | 0.00 | 0.00 | 0.00 | 100 | 890.9 |
| 20260505233345 | 12 | 213 | 37.0 | 69.2 | 0.00 | 0.00 | 0.00 | 100 | 890.8 |
| 20260505233246 | 12 | 213 | 37.0 | 72.4 | 0.00 | 0.00 | 0.00 | 100 | 890.8 |
| 20260505233040 | 12 | 214 | 41.8 | 80.5 | 0.00 | 0.00 | 0.00 | 100 | 889.1 |
| 20260505232838 | 12 | 214 | 38.6 | 80.5 | 0.00 | 0.00 | 0.00 | 100 | 891.1 |
| 20260505232637 | 12 | 212 | 38.6 | 66.0 | 0.00 | 0.00 | 0.00 | 100 | 894.4 |
| 20260505232437 | 12 | 213 | 43.5 | 74.0 | 0.00 | 0.00 | 0.00 | 100 | 890.0 |
| 20260505232337 | 12 | 211 | 45.1 | 74.0 | 0.00 | 0.00 | 0.00 | 100 | 896.7 |
| 20260505232236 | 12 | 210 | 45.1 | 74.0 | 0.00 | 0.00 | 0.00 | 100 | 889.2 |
| 20260505232035 | 12 | 211 | 40.2 | 74.0 | 0.00 | 0.00 | 0.00 | 100 | 890.4 |
| 20260505231835 | 12 | 217 | 38.6 | 72.4 | 0.00 | 0.00 | 0.00 | 100 | 897.0 |
| 20260505231634 | 12 | 218 | 41.8 | 72.4 | 0.00 | 0.00 | 0.00 | 100 | 890.7 |
| 20260505231433 | 12 | 222 | 40.2 | 72.4 | 0.00 | 0.00 | 0.00 | 100 | 894.4 |
| 20260505231334 | 12 | 220 | 38.6 | 64.4 | 0.00 | 0.00 | 0.00 | 100 | 889.8 |
| 20260505231232 | 12 | 217 | 40.2 | 66.0 | 0.00 | 0.00 | 0.00 | 100 | 891.7 |
| 20260505231032 | 12 | 215 | 41.8 | 69.2 | 0.00 | 0.00 | 0.00 | 100 | 895.5 |
| 20260505230831 | 12 | 214 | 43.5 | 69.2 | 0.00 | 0.00 | 0.00 | 100 | 889.6 |
| 20260505230630 | 12 | 218 | 38.6 | 69.2 | 0.00 | 0.00 | 0.00 | 100 | 895.6 |
| 20260505230429 | 12 | 221 | 35.4 | 57.9 | 0.00 | 0.00 | 0.00 | 100 | 889.8 |
| 20260505230330 | 12 | 221 | 37.0 | 62.8 | 0.00 | 0.00 | 0.00 | 100 | 890.5 |
| 20260505230225 | 12 | 220 | 38.6 | 67.6 | 0.00 | 0.00 | 0.00 | 100 | 893.2 |
| 20260505230025 | 12 | 211 | 45.1 | 90.1 | 0.00 | 0.00 | 0.00 | 100 | 889.5 |
| 20260505225824 | 13 | 210 | 48.3 | 90.1 | 0.00 | 0.00 | 0.00 | 100 | 895.5 |
| 20260505225624 | 12 | 215 | 41.8 | 78.9 | 0.00 | 0.00 | 0.00 | 100 | 895.0 |
| 20260505225423 | 13 | 211 | 41.8 | 67.6 | 0.00 | 0.00 | 0.00 | 100 | 889.6 |
| 20260505225324 | 13 | 211 | 41.8 | 74.0 | 0.00 | 0.00 | 0.00 | 100 | 891.4 |
| 20260505225222 | 12 | 209 | 40.2 | 74.0 | 0.00 | 0.00 | 0.00 | 100 | 896.2 |
| 20260505225022 | 12 | 211 | 40.2 | 74.0 | 0.00 | 0.00 | 0.00 | 100 | 889.8 |
| 20260505224821 | 13 | 211 | 43.5 | 82.1 | 0.00 | 0.00 | 0.00 | 100 | 896.0 |
| 20260505224620 | 12 | 212 | 40.2 | 82.1 | 0.00 | 0.00 | 0.00 | 100 | 889.8 |
| 20260505224420 | 12 | 214 | 33.8 | 59.5 | 0.00 | 0.00 | 0.00 | 100 | 890.2 |
| 20260505224319 | 12 | 212 | 33.8 | 59.5 | 0.00 | 0.00 | 0.00 | 100 | 891.9 |
| 20260505224146 | 12 | 212 | 33.8 | 82.1 | 0.00 | 0.00 | 0.00 | 100 | 895.8 |
| 20260505224043 | 12 | 216 | 35.4 | 82.1 | 0.00 | 0.00 | 0.00 | 100 | 890.2 |
| 20260505223840 | 12 | 219 | 40.2 | 82.1 | 0.00 | 0.00 | 0.00 | 100 | 892.9 |
| 20260505223638 | 12 | 218 | 37.0 | 66.0 | 0.00 | 0.00 | 0.00 | 100 | 891.0 |
| 20260505223437 | 12 | 208 | 35.4 | 61.2 | 0.00 | 0.00 | 0.00 | 100 | 891.0 |
| 20260505223236 | 12 | 203 | 32.2 | 56.3 | 0.00 | 0.00 | 0.00 | 100 | 896.7 |
| 20260505223137 | 12 | 205 | 30.6 | 56.3 | 0.00 | 0.00 | 0.00 | 100 | 896.7 |
| 20260505223036 | 12 | 208 | 32.2 | 57.9 | 0.00 | 0.00 | 0.00 | 100 | 893.7 |
| 20260505222835 | 12 | 206 | 33.8 | 57.9 | 0.00 | 0.00 | 0.00 | 100 | 890.9 |
| 20260505222634 | 12 | 199 | 35.4 | 57.9 | 0.00 | 0.00 | 0.00 | 100 | 894.7 |
| 20260505222433 | 12 | 202 | 30.6 | 61.2 | 0.00 | 0.00 | 0.00 | 100 | 894.0 |
| 20260505222235 | 12 | 203 | 32.2 | 59.5 | 0.00 | 0.00 | 0.00 | 100 | 892.6 |
| 20260505222232 | 12 | 203 | 32.2 | 59.5 | 0.00 | 0.00 | 0.00 | 100 | 891.3 |
| 20260505222132 | 12 | 203 | 33.8 | 59.5 | 0.00 | 0.00 | 0.00 | 100 | 891.3 |
| 20260505222020 | 12 | 203 | 35.4 | 59.5 | 0.00 | 0.00 | 0.00 | 100 | 896.8 |
| 20260505221819 | 12 | 207 | 32.2 | 56.3 | 0.00 | 0.00 | 0.00 | 100 | 896.2 |
| 20260505221618 | 12 | 210 | 29.0 | 53.1 | 0.00 | 0.00 | 0.00 | 100 | 894.2 |
| 20260505221418 | 12 | 210 | 27.4 | 49.9 | 0.00 | 0.00 | 0.00 | 100 | 891.3 |
| 20260505221219 | 12 | 207 | 30.6 | 59.5 | 0.00 | 0.00 | 0.00 | 100 | 892.7 |
| 20260505221216 | 12 | 207 | 30.6 | 59.5 | 0.00 | 0.00 | 0.00 | 100 | 895.5 |
| 20260505221116 | 12 | 207 | 30.6 | 59.5 | 0.00 | 0.00 | 0.00 | 100 | 895.5 |
| 20260505220833 | 12 | 202 | 29.0 | 51.5 | 0.00 | 0.00 | 0.00 | 100 | 896.7 |
| 20260505220629 | 12 | 201 | 25.7 | 38.6 | 0.00 | 0.00 | 0.00 | 100 | 892.9 |
| 20260505220425 | 12 | 199 | 25.7 | 46.7 | 0.00 | 0.00 | 0.00 | 100 | 891.9 |
| 20260505220324 | 12 | 196 | 25.7 | 46.7 | 0.00 | 0.00 | 0.00 | 100 | 892.9 |
| 20260505220221 | 12 | 199 | 30.6 | 49.9 | 0.00 | 0.00 | 0.00 | 100 | 891.5 |
| 20260505220020 | 13 | 207 | 30.6 | 49.9 | 0.00 | 0.00 | 0.00 | 100 | 893.5 |
| 20260505215819 | 13 | 208 | 30.6 | 59.5 | 0.00 | 0.00 | 0.00 | 100 | 891.5 |
| 20260505215618 | 13 | 203 | 32.2 | 59.5 | 0.00 | 0.00 | 0.00 | 100 | 893.5 |
| 20260505215418 | 13 | 203 | 33.8 | 59.5 | 0.00 | 0.00 | 0.00 | 100 | 893.1 |
| 20260505215318 | 13 | 205 | 30.6 | 53.1 | 0.00 | 0.00 | 0.00 | 100 | 893.9 |
| 20260505215217 | 13 | 208 | 29.0 | 48.3 | 0.00 | 0.00 | 0.00 | 100 | 893.9 |
| 20260505215016 | 13 | 206 | 30.6 | 59.5 | 0.00 | 0.00 | 0.00 | 100 | 895.2 |
| 20260505214815 | 13 | 200 | 35.4 | 59.5 | 0.00 | 0.00 | 0.00 | 100 | 893.6 |
| 20260505214614 | 13 | 203 | 35.4 | 64.4 | 0.00 | 0.00 | 0.00 | 100 | 892.2 |
| 20260505214414 | 13 | 205 | 40.2 | 64.4 | 0.00 | 0.00 | 0.00 | 100 | 892.0 |
| 20260505214314 | 13 | 202 | 38.6 | 64.4 | 0.00 | 0.00 | 0.00 | 100 | 894.8 |
| 20260505214212 | 13 | 201 | 33.8 | 64.4 | 0.00 | 0.00 | 0.00 | 100 | 891.5 |
| 20260505214012 | 13 | 200 | 29.0 | 62.8 | 0.00 | 0.00 | 0.00 | 100 | 893.2 |
| 20260505213811 | 13 | 198 | 30.6 | 56.3 | 0.00 | 0.00 | 0.00 | 100 | 896.6 |
| 20260505213610 | 13 | 201 | 32.2 | 61.2 | 0.00 | 0.00 | 0.00 | 100 | 892.1 |
| 20260505213407 | 13 | 207 | 33.8 | 62.8 | 0.00 | 0.00 | 0.00 | 100 | 894.4 |
| 20260505213305 | 13 | 205 | 33.8 | 67.6 | 0.00 | 0.00 | 0.00 | 100 | 895.9 |
| 20260505213029 | 13 | 201 | 29.0 | 67.6 | 0.00 | 0.00 | 0.00 | 100 | 891.4 |
| 20260505212928 | 13 | 201 | 27.4 | 51.5 | 0.00 | 0.00 | 0.00 | 100 | 891.9 |
| 20260505212825 | 13 | 201 | 25.7 | 51.5 | 0.00 | 0.00 | 0.00 | 100 | 892.9 |
| 20260505212621 | 13 | 200 | 29.0 | 51.5 | 0.00 | 0.00 | 0.00 | 100 | 894.6 |
| 20260505212417 | 13 | 203 | 29.0 | 51.5 | 0.00 | 0.00 | 0.00 | 100 | 893.3 |
| 20260505212216 | 12 | 205 | 25.7 | 51.5 | 0.00 | 0.00 | 0.00 | 100 | 893.8 |
| 20260505212016 | 12 | 210 | 27.4 | 51.5 | 0.00 | 0.00 | 0.00 | 100 | 896.9 |
| 20260505211915 | 12 | 211 | 25.7 | 51.5 | 0.00 | 0.00 | 0.00 | 100 | 892.9 |
| 20260505211750 | 13 | 208 | 27.4 | 41.8 | 0.00 | 0.00 | 0.00 | 100 | 897.1 |
| 20260505211649 | 13 | 204 | 25.7 | 41.8 | 0.00 | 0.00 | 0.00 | 100 | 892.3 |
| 20260505211506 | 13 | 201 | 25.7 | 41.8 | 0.00 | 0.00 | 0.00 | 100 | 895.6 |
| 20260505211405 | 13 | 201 | 27.4 | 53.1 | 0.00 | 0.00 | 0.00 | 100 | 895.6 |
| 20260505211211 | 13 | 201 | 27.4 | 53.1 | 0.00 | 0.00 | 0.00 | 100 | 897.4 |
| 20260505211107 | 13 | 202 | 25.7 | 53.1 | 0.00 | 0.00 | 0.00 | 100 | 892.2 |
| 20260505210906 | 13 | 207 | 24.1 | 38.6 | 0.00 | 0.00 | 0.00 | 100 | 892.8 |
| 20260505210745 | 13 | 209 | 19.3 | 35.4 | 0.00 | 0.00 | 0.00 | 100 | 896.6 |
| 20260505210705 | 13 | 209 | 19.3 | 35.4 | 0.00 | 0.00 | 0.00 | 100 | 896.6 |
| 20260505210503 | 13 | 205 | 20.9 | 35.4 | 0.00 | 0.00 | 0.00 | 100 | 897.4 |
| 20260505210303 | 13 | 204 | 22.5 | 37.0 | 0.00 | 0.00 | 0.00 | 100 | 892.7 |
| 20260505210203 | 13 | 205 | 20.9 | 37.0 | 0.00 | 0.00 | 0.00 | 100 | 892.7 |
| 20260505210050 | 13 | 208 | 20.9 | 37.0 | 0.00 | 0.00 | 0.00 | 100 | 893.9 |
| 20260505205844 | 13 | 210 | 22.5 | 38.6 | 0.00 | 0.00 | 0.00 | 100 | 893.7 |
| 20260505205642 | 13 | 211 | 24.1 | 40.2 | 0.00 | 0.00 | 0.00 | 100 | 899.1 |
| 20260505205437 | 13 | 206 | 24.1 | 45.1 | 0.00 | 0.00 | 0.00 | 100 | 892.7 |
| 20260505205335 | 13 | 205 | 24.1 | 48.3 | 0.00 | 0.00 | 0.00 | 100 | 892.9 |
| 20260505205233 | 13 | 207 | 24.1 | 48.3 | 0.00 | 0.00 | 0.00 | 100 | 893.4 |
| 20260505205029 | 13 | 207 | 24.1 | 48.3 | 0.00 | 0.00 | 0.00 | 100 | 893.4 |
| 20260505204824 | 13 | 205 | 24.1 | 46.7 | 0.00 | 0.00 | 0.00 | 100 | 897.4 |
| 20260505204729 | 13 | 207 | 24.1 | 38.6 | 0.00 | 0.00 | 0.00 | 100 | 893.0 |
| 20260505204624 | 13 | 209 | 22.5 | 38.6 | 0.00 | 0.00 | 0.00 | 100 | 892.7 |
| 20260505204528 | 13 | 207 | 24.1 | 38.6 | 0.00 | 0.00 | 0.00 | 100 | 892.9 |
| 20260505204421 | 13 | 205 | 25.7 | 41.8 | 0.00 | 0.00 | 0.00 | 100 | 893.3 |
| 20260505204320 | 13 | 205 | 25.7 | 41.8 | 0.00 | 0.00 | 0.00 | 100 | 893.3 |
| 20260505204106 | 13 | 204 | 24.1 | 41.8 | 0.00 | 0.00 | 0.00 | 100 | 897.1 |
| 20260505204005 | 13 | 207 | 24.1 | 41.8 | 0.00 | 0.00 | 0.00 | 100 | 894.7 |
| 20260505203902 | 13 | 211 | 25.7 | 45.1 | 0.00 | 0.00 | 0.00 | 100 | 897.0 |
| 20260505203658 | 13 | 218 | 29.0 | 45.1 | 0.00 | 0.00 | 0.00 | 100 | 892.8 |
| 20260505203454 | 13 | 212 | 27.4 | 41.8 | 0.00 | 0.00 | 0.00 | 100 | 893.2 |
| 20260505203250 | 13 | 210 | 24.1 | 41.8 | 0.00 | 0.00 | 0.00 | 100 | 895.7 |
| 20260505203047 | 13 | 215 | 25.7 | 49.9 | 0.00 | 0.00 | 0.00 | 100 | 894.6 |
| 20260505202946 | 13 | 218 | 29.0 | 54.7 | 0.00 | 0.00 | 0.00 | 100 | 894.6 |
| 20260505202731 | 13 | 219 | 30.6 | 54.7 | 0.00 | 0.00 | 0.00 | 100 | 893.0 |
| 20260505202630 | 13 | 214 | 29.0 | 54.7 | 0.00 | 0.00 | 0.00 | 100 | 892.8 |
| 20260505202527 | 13 | 212 | 27.4 | 43.5 | 0.00 | 0.00 | 0.00 | 100 | 892.9 |
| 20260505202324 | 13 | 221 | 27.4 | 46.7 | 0.00 | 0.00 | 0.00 | 100 | 896.3 |
| 20260505202120 | 13 | 218 | 29.0 | 46.7 | 0.00 | 0.00 | 0.00 | 100 | 893.4 |
| 20260505201916 | 13 | 210 | 29.0 | 53.1 | 0.00 | 0.00 | 0.00 | 100 | 897.7 |
| 20260505201714 | 13 | 210 | 30.6 | 57.9 | 0.00 | 0.00 | 0.00 | 100 | 893.6 |
| 20260505201613 | 13 | 210 | 30.6 | 57.9 | 0.00 | 0.00 | 0.00 | 100 | 893.6 |
| 20260505201359 | 14 | 211 | 29.0 | 57.9 | 0.00 | 0.00 | 0.00 | 100 | 894.5 |
| 20260505201156 | 14 | 212 | 30.6 | 56.3 | 0.00 | 0.00 | 0.00 | 100 | 896.6 |
| 20260505200951 | 14 | 221 | 32.2 | 56.3 | 0.00 | 0.00 | 0.00 | 100 | 893.9 |
| 20260505200851 | 14 | 220 | 32.2 | 51.5 | 0.00 | 0.00 | 0.00 | 100 | 893.7 |
| 20260505200748 | 14 | 220 | 30.6 | 51.5 | 0.00 | 0.00 | 0.00 | 100 | 893.5 |
| 20260505200544 | 14 | 216 | 29.0 | 49.9 | 0.00 | 0.00 | 0.00 | 100 | 893.7 |
| 20260505200339 | 14 | 215 | 30.6 | 51.5 | 0.00 | 0.00 | 0.00 | 100 | 896.2 |
| 20260505200137 | 14 | 215 | 32.2 | 51.5 | 0.00 | 0.00 | 0.00 | 100 | 894.0 |
| 20260505195940 | 14 | 211 | 30.6 | 51.5 | 0.00 | 0.00 | 0.00 | 100 | 894.0 |
| 20260505195936 | 14 | 211 | 30.6 | 51.5 | 0.00 | 0.00 | 0.00 | 100 | 893.9 |
| 20260505195834 | 14 | 211 | 30.6 | 51.5 | 0.00 | 0.00 | 0.00 | 100 | 893.9 |
| 20260505195644 | 14 | 210 | 29.0 | 51.5 | 0.00 | 0.00 | 0.00 | 100 | 893.7 |
| 20260505195405 | 14 | 211 | 30.6 | 56.3 | 0.00 | 0.00 | 0.00 | 100 | 895.5 |
| 20260505195205 | 14 | 208 | 29.0 | 56.3 | 0.00 | 0.00 | 0.00 | 100 | 894.5 |
| 20260505195002 | 15 | 210 | 29.0 | 49.9 | 0.00 | 0.00 | 0.00 | 100 | 894.6 |
| 20260505194901 | 15 | 210 | 29.0 | 49.9 | 0.00 | 0.00 | 0.00 | 100 | 894.5 |
| 20260505194725 | 15 | 207 | 29.0 | 53.1 | 0.00 | 0.00 | 0.00 | 100 | 894.5 |
| 20260505194523 | 15 | 207 | 30.6 | 53.1 | 0.00 | 0.00 | 0.00 | 100 | 894.6 |
| 20260505194323 | 15 | 205 | 27.4 | 43.5 | 0.00 | 0.00 | 0.00 | 100 | 894.6 |
| 20260505194223 | 15 | 205 | 27.4 | 43.5 | 0.00 | 0.00 | 0.00 | 100 | 894.6 |
| 20260505193903 | 15 | 209 | 29.0 | 56.3 | 0.00 | 0.00 | 0.00 | 100 | 894.5 |
| 20260505193802 | 15 | 212 | 29.0 | 56.3 | 0.00 | 0.00 | 0.00 | 100 | 894.5 |
| 20260505193553 | 15 | 209 | 24.1 | 45.1 | 0.00 | 0.00 | 0.00 | 100 | 894.5 |
| 20260505193452 | 15 | 210 | 24.1 | 41.8 | 0.00 | 0.00 | 0.00 | 100 | 894.5 |
| 20260505193323 | 15 | 208 | 22.5 | 41.8 | 0.00 | 0.00 | 0.00 | 100 | 894.5 |
| 20260505193221 | 15 | 208 | 25.7 | 54.7 | 0.00 | 0.00 | 0.00 | 100 | 894.6 |
| 20260505192931 | 15 | 205 | 33.8 | 57.9 | 0.00 | 0.00 | 0.00 | 100 | 894.6 |
| 20260505192730 | 15 | 206 | 32.2 | 57.9 | 0.00 | 0.00 | 0.00 | 100 | 894.5 |
| 20260505192529 | 15 | 207 | 29.0 | 57.9 | 0.00 | 0.00 | 0.00 | 100 | 894.7 |
| 20260505192325 | 15 | 202 | 27.4 | 48.3 | 0.00 | 0.00 | 0.00 | 100 | 894.7 |
| 20260505192223 | 15 | 202 | 29.0 | 48.3 | 0.00 | 0.00 | 0.00 | 100 | 894.6 |
| 20260505192022 | 15 | 207 | 29.0 | 46.7 | 0.00 | 0.00 | 0.00 | 100 | 894.6 |
| 20260505191817 | 15 | 210 | 25.7 | 45.1 | 0.00 | 0.00 | 0.00 | 100 | 894.6 |
| 20260505191609 | 15 | 207 | 24.1 | 41.8 | 0.00 | 0.00 | 0.00 | 100 | 894.7 |
| 20260505191405 | 15 | 206 | 27.4 | 48.3 | 0.00 | 0.00 | 0.00 | 100 | 894.6 |
| 20260505191305 | 15 | 206 | 29.0 | 51.5 | 0.00 | 0.00 | 0.00 | 100 | 894.6 |
| 20260505191050 | 15 | 209 | 32.2 | 53.1 | 0.00 | 0.00 | 0.00 | 100 | 894.6 |
| 20260505190948 | 15 | 213 | 32.2 | 53.1 | 0.00 | 0.00 | 0.00 | 100 | 894.5 |
| 20260505190846 | 15 | 210 | 30.6 | 56.3 | 0.00 | 0.00 | 0.00 | 100 | 894.5 |
| 20260505190642 | 15 | 212 | 29.0 | 56.3 | 0.00 | 0.00 | 0.00 | 100 | 894.6 |
| 20260505190438 | 15 | 212 | 29.0 | 51.5 | 0.00 | 0.00 | 0.00 | 100 | 894.6 |
| 20260505190233 | 15 | 206 | 30.6 | 51.5 | 0.00 | 0.00 | 0.00 | 100 | 894.4 |
| 20260505190029 | 15 | 207 | 30.6 | 53.1 | 0.00 | 0.00 | 0.00 | 100 | 894.6 |
| 20260505185928 | 15 | 205 | 32.2 | 53.1 | 0.00 | 0.00 | 0.00 | 100 | 894.6 |
| 20260505185708 | 15 | 201 | 32.2 | 54.7 | 0.00 | 0.00 | 0.00 | 100 | 894.6 |
| 20260505185604 | 15 | 202 | 30.6 | 54.7 | 0.00 | 0.00 | 0.00 | 100 | 894.6 |
| 20260505185502 | 15 | 206 | 30.6 | 46.7 | 0.00 | 0.00 | 0.00 | 100 | 894.6 |
| 20260505185257 | 15 | 206 | 27.4 | 51.5 | 0.00 | 0.00 | 0.00 | 100 | 894.7 |
| 20260505185052 | 15 | 205 | 24.1 | 51.5 | 0.00 | 0.00 | 0.00 | 100 | 894.7 |
| 20260505184847 | 15 | 207 | 24.1 | 38.6 | 0.00 | 0.00 | 0.00 | 100 | 894.8 |
| 20260505184642 | 15 | 208 | 25.7 | 43.5 | 0.00 | 0.00 | 0.00 | 100 | 894.7 |
| 20260505184541 | 15 | 209 | 25.7 | 48.3 | 0.00 | 0.00 | 0.00 | 100 | 894.8 |
| 20260505184328 | 15 | 207 | 25.7 | 48.3 | 0.00 | 0.00 | 0.00 | 100 | 894.8 |
| 20260505184127 | 15 | 205 | 24.1 | 46.7 | 0.00 | 0.00 | 0.00 | 100 | 894.8 |
| 20260505183926 | 15 | 207 | 25.7 | 40.2 | 0.00 | 0.00 | 0.00 | 100 | 894.7 |
| 20260505183825 | 15 | 211 | 25.7 | 41.8 | 0.00 | 0.00 | 0.00 | 100 | 894.7 |
| 20260505183723 | 15 | 211 | 22.5 | 41.8 | 0.00 | 0.00 | 0.00 | 100 | 894.7 |
| 20260505183625 | 15 | 211 | 22.5 | 41.8 | 0.00 | 0.00 | 0.00 | 100 | 894.7 |
| 20260505183521 | 15 | 208 | 19.3 | 41.8 | 0.00 | 0.00 | 0.00 | 100 | 894.8 |
| 20260505183424 | 15 | 207 | 19.3 | 37.0 | 0.00 | 0.00 | 0.00 | 100 | 894.9 |
| 20260505183319 | 15 | 208 | 17.7 | 37.0 | 0.00 | 0.00 | 0.00 | 100 | 894.8 |
| 20260505183224 | 15 | 210 | 20.9 | 45.1 | 0.00 | 0.00 | 0.00 | 100 | 894.9 |
| 20260505183119 | 15 | 214 | 22.5 | 45.1 | 0.00 | 0.00 | 0.00 | 100 | 894.7 |
| 20260505183024 | 15 | 217 | 22.5 | 45.1 | 0.00 | 0.00 | 0.00 | 100 | 894.8 |
| 20260505182918 | 15 | 218 | 25.7 | 45.1 | 0.00 | 0.00 | 0.00 | 100 | 894.8 |
| 20260505182817 | 15 | 213 | 24.1 | 41.8 | 0.00 | 0.00 | 0.00 | 100 | 894.8 |
| 20260505182705 | 15 | 210 | 25.7 | 40.2 | 0.00 | 0.00 | 0.00 | 100 | 894.8 |
| 20260505182604 | 15 | 211 | 25.7 | 40.2 | 0.00 | 0.00 | 0.00 | 100 | 894.8 |
| 20260505182500 | 15 | 210 | 24.1 | 40.2 | 0.00 | 0.00 | 0.00 | 100 | 894.8 |
| 20260505182256 | 15 | 218 | 24.1 | 38.6 | 0.00 | 0.00 | 0.00 | 100 | 894.8 |
| 20260505182053 | 15 | 222 | 22.5 | 46.7 | 0.00 | 0.00 | 0.00 | 100 | 894.8 |
| 20260505181544 | 15 | 212 | 24.1 | 40.2 | 0.00 | 0.00 | 0.00 | 100 | 894.8 |
| 20260505181249 | 15 | 208 | 24.1 | 38.6 | 0.00 | 0.00 | 0.00 | 100 | 894.7 |
| 20260505181048 | 16 | 207 | 22.5 | 37.0 | 0.00 | 0.00 | 0.00 | 100 | 894.8 |
| 20260505181040 | 15 | 207 | 22.5 | 37.0 | 0.00 | 0.00 | 0.00 | 100 | 894.8 |
| 20260505180846 | 15 | 208 | 20.9 | 37.0 | 0.00 | 0.00 | 0.00 | 100 | 894.7 |
| 20260505180644 | 15 | 205 | 20.9 | 35.4 | 0.00 | 0.00 | 0.00 | 100 | 894.7 |
| 20260505180537 | 15 | 206 | 22.5 | 37.0 | 0.00 | 0.00 | 0.00 | 100 | 894.8 |
| 20260505180443 | 15 | 206 | 22.5 | 41.8 | 0.00 | 0.00 | 0.00 | 100 | 894.7 |
| 20260505175528 | 16 | 219 | 22.5 | 38.6 | 0.00 | 0.00 | 0.00 | 100 | 894.8 |
| 20260505175026 | 16 | 210 | 22.5 | 40.2 | 0.00 | 0.00 | 0.00 | 100 | 894.6 |
| 20260505174522 | 16 | 210 | 22.5 | 45.1 | 0.00 | 0.00 | 0.00 | 100 | 894.6 |
| 20260505174308 | 16 | 206 | 24.1 | 46.7 | 0.00 | 0.00 | 0.00 | 100 | 894.6 |
| 20260505174207 | 16 | 209 | 25.7 | 46.7 | 0.00 | 0.00 | 0.00 | 100 | 894.6 |
| 20260505174105 | 16 | 209 | 25.7 | 46.7 | 0.00 | 0.00 | 0.00 | 100 | 894.5 |
| 20260505173900 | 16 | 212 | 24.1 | 41.8 | 0.00 | 0.00 | 0.00 | 100 | 894.6 |
| 20260505173657 | 16 | 213 | 24.1 | 45.1 | 0.00 | 0.00 | 0.00 | 100 | 894.8 |
| 20260505173453 | 16 | 205 | 20.9 | 45.1 | 0.00 | 0.00 | 0.00 | 100 | 894.9 |
| 20260505173249 | 16 | 205 | 14.5 | 27.4 | 0.00 | 0.00 | 0.00 | 100 | 894.9 |
| 20260505173148 | 16 | 204 | 16.1 | 35.4 | 0.00 | 0.00 | 0.00 | 100 | 895.2 |
| 20260505172843 | 16 | 222 | 20.9 | 37.0 | 0.00 | 0.00 | 0.00 | 100 | 894.9 |
| 20260505172642 | 16 | 227 | 27.4 | 45.1 | 0.00 | 0.00 | 0.00 | 100 | 894.9 |
| 20260505172440 | 16 | 236 | 29.0 | 48.3 | 0.00 | 0.00 | 0.00 | 100 | 894.7 |
| 20260505172237 | 16 | 234 | 29.0 | 48.3 | 0.00 | 0.00 | 0.00 | 100 | 894.7 |
| 20260505172136 | 16 | 234 | 29.0 | 48.3 | 0.00 | 0.00 | 0.00 | 100 | 894.7 |
| 20260505172023 | 16 | 219 | 29.0 | 51.5 | 0.00 | 0.00 | 0.00 | 100 | 894.8 |
| 20260505171819 | 16 | 218 | 33.8 | 57.9 | 0.00 | 0.00 | 0.00 | 100 | 894.8 |
| 20260505171718 | 16 | 223 | 32.2 | 57.9 | 0.00 | 0.00 | 0.00 | 100 | 894.8 |
| 20260505171615 | 16 | 222 | 32.2 | 57.9 | 0.00 | 0.00 | 0.00 | 100 | 894.7 |
| 20260505171412 | 16 | 205 | 25.7 | 43.5 | 0.00 | 0.00 | 0.00 | 100 | 894.8 |
| 20260505171208 | 16 | 220 | 24.1 | 41.8 | 0.00 | 0.00 | 0.00 | 100 | 894.6 |
| 20260505171004 | 16 | 207 | 27.4 | 56.3 | 0.00 | 0.00 | 0.00 | 100 | 894.2 |
| 20260505170800 | 16 | 200 | 27.4 | 56.3 | 0.00 | 0.00 | 0.00 | 100 | 894.2 |
| 20260505170701 | 16 | 206 | 22.5 | 53.1 | 0.00 | 0.00 | 0.00 | 100 | 894.5 |
| 20260505170600 | 17 | 215 | 22.5 | 45.1 | 0.00 | 0.00 | 0.00 | 100 | 894.5 |
| 20260505170359 | 17 | 221 | 24.1 | 38.6 | 0.00 | 0.00 | 0.00 | 100 | 894.5 |
| 20260505170159 | 17 | 219 | 25.7 | 41.8 | 0.00 | 0.00 | 0.00 | 100 | 894.5 |
| 20260505165957 | 17 | 214 | 25.7 | 48.3 | 0.00 | 0.00 | 0.00 | 100 | 894.6 |
| 20260505165756 | 17 | 217 | 25.7 | 54.7 | 0.00 | 0.00 | 0.00 | 100 | 894.8 |
| 20260505165655 | 17 | 216 | 25.7 | 54.7 | 0.00 | 0.00 | 0.00 | 100 | 894.5 |
| 20260505165454 | 17 | 224 | 22.5 | 54.7 | 0.00 | 0.00 | 0.00 | 100 | 894.7 |
| 20260505165342 | 17 | 230 | 24.1 | 43.5 | 0.00 | 0.00 | 0.00 | 100 | 894.7 |
| 20260505165136 | 17 | 231 | 29.0 | 54.7 | 0.00 | 0.00 | 0.00 | 100 | 894.7 |
| 20260505164933 | 17 | 222 | 27.4 | 54.7 | 0.00 | 0.00 | 0.00 | 100 | 894.7 |
| 20260505164729 | 17 | 208 | 25.7 | 57.9 | 0.00 | 0.00 | 0.00 | 100 | 894.8 |
| 20260505164525 | 17 | 222 | 30.6 | 57.9 | 0.00 | 0.00 | 0.00 | 100 | 894.6 |
| 20260505164424 | 17 | 236 | 30.6 | 57.9 | 0.00 | 0.00 | 0.00 | 100 | 894.6 |
| 20260505164321 | 17 | 233 | 30.6 | 51.5 | 0.00 | 0.00 | 0.00 | 100 | 894.7 |
| 20260505164115 | 17 | 233 | 33.8 | 53.1 | 0.00 | 0.00 | 0.00 | 100 | 894.6 |
| 20260505163914 | 17 | 234 | 32.2 | 53.1 | 0.00 | 0.00 | 0.00 | 100 | 894.4 |
| 20260505163713 | 17 | 233 | 27.4 | 49.9 | 0.00 | 0.00 | 0.00 | 100 | 894.5 |
| 20260505163511 | 17 | 238 | 27.4 | 41.8 | 0.00 | 0.00 | 0.00 | 100 | 894.9 |
| 20260505163412 | 17 | 245 | 29.0 | 57.9 | 0.00 | 0.00 | 0.00 | 100 | 894.9 |
| 20260505163308 | 17 | 244 | 29.0 | 57.9 | 0.00 | 0.00 | 0.00 | 100 | 894.7 |
| 20260505163107 | 17 | 238 | 33.8 | 57.9 | 0.00 | 0.00 | 0.00 | 100 | 894.3 |
| 20260505162905 | 17 | 234 | 32.2 | 54.7 | 0.00 | 0.00 | 0.00 | 100 | 894.7 |
| 20260505162703 | 18 | 235 | 29.0 | 51.5 | 0.00 | 0.00 | 0.00 | 100 | 894.9 |
| 20260505162502 | 18 | 237 | 29.0 | 48.3 | 0.00 | 0.00 | 0.00 | 100 | 895.1 |
| 20260505162402 | 18 | 233 | 29.0 | 48.3 | 0.00 | 0.00 | 0.00 | 100 | 895.2 |
| 20260505162212 | 17 | 222 | 25.7 | 43.5 | 0.00 | 0.00 | 0.00 | 100 | 895.4 |
| 20260505162110 | 17 | 209 | 25.7 | 43.5 | 0.00 | 0.00 | 0.00 | 100 | 895.4 |
| 20260505161855 | 17 | 201 | 29.0 | 57.9 | 0.00 | 0.00 | 0.00 | 100 | 894.9 |
| 20260505161651 | 17 | 206 | 32.2 | 57.9 | 0.00 | 0.00 | 0.00 | 100 | 894.6 |
| 20260505161550 | 17 | 211 | 30.6 | 57.9 | 0.00 | 0.00 | 0.00 | 100 | 894.6 |
| 20260505161447 | 17 | 224 | 32.2 | 57.9 | 0.00 | 0.00 | 0.00 | 100 | 894.6 |
| 20260505161243 | 17 | 225 | 29.0 | 54.7 | 0.00 | 0.00 | 0.00 | 100 | 894.6 |
| 20260505161040 | 17 | 218 | 29.0 | 54.7 | 0.00 | 0.00 | 0.00 | 100 | 894.8 |
| 20260505160836 | 17 | 228 | 30.6 | 45.1 | 0.00 | 0.00 | 0.00 | 100 | 894.7 |
| 20260505160632 | 17 | 229 | 30.6 | 45.1 | 0.00 | 0.00 | 0.00 | 100 | 894.6 |
| 20260505160532 | 17 | 228 | 30.6 | 48.3 | 0.00 | 0.00 | 0.00 | 100 | 894.6 |
| 20260505160431 | 17 | 226 | 30.6 | 51.5 | 0.00 | 0.00 | 0.00 | 100 | 894.7 |
| 20260505160338 | 17 | 219 | 32.2 | 57.9 | 0.00 | 0.00 | 0.00 | 100 | 894.6 |
| 20260505160229 | 17 | 219 | 35.4 | 61.2 | 0.00 | 0.00 | 0.00 | 100 | 894.6 |
| 20260505160135 | 17 | 221 | 38.6 | 61.2 | 0.00 | 0.00 | 0.00 | 100 | 894.4 |
| 20260505153336 | 17 | 221 | 37.0 | 64.4 | 0.00 | 0.00 | 0.00 | 100 | 894.1 |
| 20260505153234 | 17 | 225 | 37.0 | 66.0 | 0.00 | 0.00 | 0.00 | 100 | 894.2 |
| 20260505153131 | 17 | 224 | 37.0 | 66.0 | 0.00 | 0.00 | 0.00 | 100 | 894.2 |
| 20260505152930 | 17 | 221 | 37.0 | 66.0 | 0.00 | 0.00 | 0.00 | 100 | 894.1 |
| 20260505152729 | 17 | 217 | 35.4 | 61.2 | 0.00 | 0.00 | 0.00 | 100 | 894.2 |
| 20260505152529 | 18 | 217 | 35.4 | 62.8 | 0.00 | 0.00 | 0.00 | 100 | 894.2 |
| 20260505152328 | 18 | 218 | 35.4 | 66.0 | 0.00 | 0.00 | 0.00 | 100 | 894.3 |
| 20260505152228 | 18 | 220 | 35.4 | 66.0 | 0.00 | 0.00 | 0.00 | 100 | 894.3 |
| 20260505152124 | 18 | 221 | 35.4 | 66.0 | 0.00 | 0.00 | 0.00 | 100 | 894.5 |
| 20260505151719 | 18 | 212 | 35.4 | 56.3 | 0.00 | 0.00 | 0.00 | 100 | 894.8 |
| 20260505151419 | 18 | 215 | 32.2 | 56.3 | 0.00 | 0.00 | 0.00 | 100 | 894.7 |
| 20260505151222 | 18 | 206 | 32.2 | 61.2 | 0.00 | 0.00 | 0.00 | 100 | 894.7 |
| 20260505151211 | 18 | 206 | 32.2 | 61.2 | 0.00 | 0.00 | 0.00 | 100 | 894.6 |
| 20260505151018 | 18 | 203 | 35.4 | 62.8 | 0.00 | 0.00 | 0.00 | 100 | 894.6 |
| 20260505150826 | 18 | 215 | 35.4 | 64.4 | 0.00 | 0.00 | 0.00 | 100 | 894.4 |
| 20260505150710 | 18 | 215 | 32.2 | 64.4 | 0.00 | 0.00 | 0.00 | 100 | 894.5 |
| 20260505150616 | 18 | 211 | 29.0 | 48.3 | 0.00 | 0.00 | 0.00 | 100 | 894.5 |
| 20260505150203 | 18 | 214 | 33.8 | 54.7 | 0.00 | 0.00 | 0.00 | 100 | 895.0 |
| 20260505140629 | 18 | 215 | 35.4 | 67.6 | 0.00 | 0.00 | 0.00 | 100 | 895.0 |
| 20260505140126 | 18 | 210 | 35.4 | 54.7 | 0.00 | 0.00 | 0.00 | 100 | 894.8 |
| 20260505130220 | 18 | 213 | 33.8 | 54.7 | 0.00 | 0.00 | 0.00 | 100 | 895.4 |
| 20260505130115 | 19 | 211 | 33.8 | 57.9 | 0.00 | 0.00 | 0.00 | 100 | 895.5 |
| 20260505124903 | 18 | 200 | 38.6 | 62.8 | 0.00 | 0.00 | 0.00 | 100 | 895.6 |
| 20260505124705 | 18 | 205 | 38.6 | 64.4 | 0.00 | 0.00 | 0.00 | 100 | 895.3 |
| 20260505124703 | 18 | 205 | 38.6 | 64.4 | 0.00 | 0.00 | 0.00 | 100 | 895.2 |
| 20260505124602 | 18 | 213 | 38.6 | 64.4 | 0.00 | 0.00 | 0.00 | 100 | 895.2 |
| 20260505124351 | 18 | 218 | 37.0 | 64.4 | 0.00 | 0.00 | 0.00 | 100 | 895.9 |
| 20260505124249 | 18 | 211 | 35.4 | 59.5 | 0.00 | 0.00 | 0.00 | 100 | 895.8 |
| 20260505124107 | 18 | 208 | 38.6 | 59.5 | 0.00 | 0.00 | 0.00 | 100 | 895.8 |
| 20260505124005 | 18 | 210 | 38.6 | 59.5 | 0.00 | 0.00 | 0.00 | 100 | 895.6 |
| 20260505123652 | 18 | 212 | 33.8 | 53.1 | 0.00 | 0.00 | 0.00 | 100 | 895.7 |
| 20260505123539 | 18 | 200 | 33.8 | 57.9 | 0.00 | 0.00 | 0.00 | 100 | 895.9 |
| 20260505123450 | 18 | 200 | 33.8 | 57.9 | 0.00 | 0.00 | 0.00 | 100 | 895.9 |
| 20260505123350 | 18 | 200 | 35.4 | 59.5 | 0.00 | 0.00 | 0.00 | 100 | 895.8 |
| 20260505123154 | 18 | 208 | 38.6 | 67.6 | 0.00 | 0.00 | 0.00 | 100 | 895.6 |
| 20260505123051 | 18 | 213 | 37.0 | 67.6 | 0.00 | 0.00 | 0.00 | 100 | 895.6 |
| 20260505122939 | 18 | 224 | 37.0 | 66.0 | 0.00 | 0.00 | 0.00 | 100 | 895.6 |
| 20260505122739 | 18 | 223 | 35.4 | 61.2 | 0.00 | 0.00 | 0.00 | 100 | 895.7 |
| 20260505122538 | 18 | 221 | 30.6 | 53.1 | 0.00 | 0.00 | 0.00 | 100 | 896.0 |
| 20260505122336 | 18 | 212 | 30.6 | 51.5 | 0.00 | 0.00 | 0.00 | 100 | 896.2 |
| 20260505122136 | 18 | 210 | 29.0 | 57.9 | 0.00 | 0.00 | 0.00 | 100 | 896.4 |
| 20260505122036 | 18 | 211 | 29.0 | 57.9 | 0.00 | 0.00 | 0.00 | 100 | 896.6 |
| 20260505121842 | 17 | 212 | 27.4 | 54.7 | 0.00 | 0.00 | 0.00 | 100 | 896.4 |
| 20260505121742 | 17 | 212 | 24.1 | 54.7 | 0.00 | 0.00 | 0.00 | 100 | 896.4 |
| 20260505121641 | 17 | 216 | 25.7 | 38.6 | 0.00 | 0.00 | 0.00 | 100 | 896.2 |
| 20260505121441 | 17 | 208 | 25.7 | 38.6 | 0.00 | 0.00 | 0.00 | 100 | 895.5 |
| 20260505121237 | 17 | 207 | 37.0 | 53.1 | 0.00 | 0.00 | 0.00 | 100 | 895.5 |
| 20260505121033 | 17 | 207 | 37.0 | 62.8 | 0.00 | 0.00 | 0.00 | 100 | 895.5 |
| 20260505120833 | 17 | 209 | 33.8 | 62.8 | 0.00 | 0.00 | 0.00 | 100 | 895.7 |
| 20260505120733 | 17 | 209 | 32.2 | 57.9 | 0.00 | 0.00 | 0.00 | 100 | 895.8 |
| 20260505120632 | 17 | 214 | 32.2 | 57.9 | 0.00 | 0.00 | 0.00 | 100 | 895.8 |
| 20260505120431 | 17 | 212 | 30.6 | 56.3 | 0.00 | 0.00 | 0.00 | 100 | 896.0 |
| 20260505120231 | 17 | 218 | 32.2 | 56.3 | 0.00 | 0.00 | 0.00 | 100 | 895.9 |
| 20260505120030 | 17 | 212 | 32.2 | 51.5 | 0.00 | 0.00 | 0.00 | 100 | 896.0 |
| 20260505115829 | 17 | 204 | 32.2 | 59.5 | 0.00 | 0.00 | 0.00 | 100 | 895.9 |
| 20260505115730 | 17 | 204 | 30.6 | 59.5 | 0.00 | 0.00 | 0.00 | 100 | 896.1 |
| 20260505115628 | 17 | 206 | 30.6 | 59.5 | 0.00 | 0.00 | 0.00 | 100 | 896.2 |
| 20260505115429 | 17 | 212 | 32.2 | 61.2 | 0.00 | 0.00 | 0.00 | 100 | 896.2 |
| 20260505115227 | 17 | 212 | 35.4 | 61.2 | 0.00 | 0.00 | 0.00 | 100 | 896.0 |
| 20260505115025 | 17 | 212 | 37.0 | 56.3 | 0.00 | 0.00 | 0.00 | 100 | 896.0 |
| 20260505114824 | 17 | 213 | 37.0 | 57.9 | 0.00 | 0.00 | 0.00 | 100 | 895.9 |
| 20260505114725 | 17 | 218 | 37.0 | 57.9 | 0.00 | 0.00 | 0.00 | 100 | 895.9 |
| 20260505114623 | 17 | 223 | 37.0 | 57.9 | 0.00 | 0.00 | 0.00 | 100 | 895.9 |
| 20260505114423 | 17 | 229 | 37.0 | 61.2 | 0.00 | 0.00 | 0.00 | 100 | 896.0 |
| 20260505114222 | 17 | 218 | 35.4 | 61.2 | 0.00 | 0.00 | 0.00 | 100 | 895.8 |
| 20260505114021 | 17 | 206 | 37.0 | 54.7 | 0.00 | 0.00 | 0.00 | 100 | 895.7 |
| 20260505113819 | 17 | 210 | 38.6 | 67.6 | 0.00 | 0.00 | 0.00 | 100 | 895.5 |
| 20260505113719 | 17 | 208 | 37.0 | 67.6 | 0.00 | 0.00 | 0.00 | 100 | 895.3 |
| 20260505113458 | 17 | 210 | 37.0 | 70.8 | 0.00 | 0.00 | 0.00 | 100 | 895.4 |
| 20260505113257 | 17 | 209 | 37.0 | 70.8 | 0.00 | 0.00 | 0.00 | 100 | 895.6 |
| 20260505113056 | 17 | 208 | 37.0 | 61.2 | 0.00 | 0.00 | 0.00 | 100 | 895.8 |
| 20260505112955 | 17 | 210 | 35.4 | 56.3 | 0.00 | 0.00 | 0.00 | 100 | 895.8 |
| 20260505112935 | 17 | 212 | 33.8 | 56.3 | 0.00 | 0.00 | 0.00 | 100 | 896.7 |
| 20260505112739 | 18 | 212 | 33.8 | 56.3 | 0.00 | 0.00 | 0.00 | 100 | 896.7 |
| 20260505112639 | 17 | 212 | 33.8 | 56.3 | 0.00 | 0.00 | 0.00 | 100 | 896.7 |
| 20260505112536 | 17 | 211 | 33.8 | 61.2 | 0.00 | 0.00 | 0.00 | 100 | 896.6 |
| 20260505112332 | 17 | 210 | 33.8 | 61.2 | 0.00 | 0.00 | 0.00 | 100 | 896.2 |
| 20260505112128 | 17 | 208 | 33.8 | 61.2 | 0.00 | 0.00 | 0.00 | 100 | 896.2 |
| 20260505111923 | 17 | 206 | 35.4 | 77.2 | 0.00 | 0.00 | 0.00 | 100 | 896.2 |
| 20260505111719 | 17 | 206 | 37.0 | 77.2 | 0.00 | 0.00 | 0.00 | 100 | 896.1 |
| 20260505111618 | 17 | 207 | 37.0 | 77.2 | 0.00 | 0.00 | 0.00 | 100 | 896.1 |
| 20260505111404 | 17 | 206 | 38.6 | 62.8 | 0.00 | 0.00 | 0.00 | 100 | 896.1 |
| 20260505111305 | 17 | 209 | 38.6 | 59.5 | 0.00 | 0.00 | 0.00 | 100 | 895.6 |
| 20260505111203 | 17 | 209 | 35.4 | 59.5 | 0.00 | 0.00 | 0.00 | 100 | 895.6 |
| 20260505111001 | 17 | 209 | 35.4 | 62.8 | 0.00 | 0.00 | 0.00 | 100 | 895.7 |
| 20260505110756 | 17 | 212 | 37.0 | 62.8 | 0.00 | 0.00 | 0.00 | 100 | 895.5 |
| 20260505110552 | 17 | 212 | 33.8 | 62.8 | 0.00 | 0.00 | 0.00 | 100 | 895.6 |
| 20260505110348 | 17 | 205 | 30.6 | 51.5 | 0.00 | 0.00 | 0.00 | 100 | 896.0 |
| 20260505110245 | 17 | 204 | 32.2 | 51.5 | 0.00 | 0.00 | 0.00 | 100 | 896.0 |
| 20260505102141 | 17 | 212 | 32.2 | 51.5 | 0.00 | 0.00 | 0.00 | 100 | 896.6 |
| 20260505102135 | 17 | 212 | 33.8 | 59.5 | 0.00 | 0.00 | 0.00 | 100 | 896.2 |
| 20260505101938 | 17 | 216 | 35.4 | 53.1 | 0.00 | 0.00 | 0.00 | 100 | 896.3 |
| 20260505101735 | 17 | 212 | 33.8 | 59.5 | 0.00 | 0.00 | 0.00 | 100 | 896.2 |
| 20260505101531 | 17 | 209 | 35.4 | 59.5 | 0.00 | 0.00 | 0.00 | 100 | 895.9 |
| 20260505101327 | 17 | 211 | 38.6 | 72.4 | 0.00 | 0.00 | 0.00 | 100 | 895.6 |
| 20260505101226 | 17 | 212 | 38.6 | 72.4 | 0.00 | 0.00 | 0.00 | 100 | 895.7 |
| 20260505100948 | 17 | 212 | 35.4 | 67.6 | 0.00 | 0.00 | 0.00 | 100 | 896.0 |
| 20260505100748 | 17 | 223 | 35.4 | 67.6 | 0.00 | 0.00 | 0.00 | 100 | 896.6 |
| 20260505100547 | 17 | 225 | 37.0 | 64.4 | 0.00 | 0.00 | 0.00 | 100 | 896.0 |
| 20260505100446 | 17 | 223 | 33.8 | 64.4 | 0.00 | 0.00 | 0.00 | 100 | 896.0 |
| 20260505100327 | 18 | 229 | 32.2 | 64.4 | 0.00 | 0.00 | 0.00 | 100 | 896.4 |
| 20260505100122 | 17 | 228 | 32.2 | 57.9 | 0.00 | 0.00 | 0.00 | 100 | 897.1 |
| 20260505100021 | 17 | 228 | 35.4 | 66.0 | 0.00 | 0.00 | 0.00 | 100 | 897.0 |
| 20260505095710 | 17 | 217 | 38.6 | 62.8 | 0.00 | 0.00 | 0.00 | 100 | 896.2 |
| 20260505095509 | 17 | 214 | 35.4 | 54.7 | 0.00 | 0.00 | 0.00 | 100 | 896.5 |
| 20260505095305 | 17 | 222 | 37.0 | 61.2 | 0.00 | 0.00 | 0.00 | 100 | 896.6 |
| 20260505095204 | 17 | 225 | 38.6 | 61.2 | 0.00 | 0.00 | 0.00 | 100 | 896.6 |
| 20260505094940 | 17 | 224 | 35.4 | 61.2 | 0.00 | 0.00 | 0.00 | 100 | 896.6 |
| 20260505094738 | 17 | 219 | 35.4 | 56.3 | 0.00 | 0.00 | 0.00 | 100 | 896.6 |
| 20260505094536 | 17 | 220 | 38.6 | 57.9 | 0.00 | 0.00 | 0.00 | 100 | 896.6 |
| 20260505094332 | 17 | 213 | 37.0 | 62.8 | 0.00 | 0.00 | 0.00 | 100 | 896.8 |
| 20260505094303 | 17 | 211 | 37.0 | 62.8 | 0.00 | 0.00 | 0.00 | 100 | 896.8 |
| 20260505094129 | 17 | 211 | 37.0 | 62.8 | 0.00 | 0.00 | 0.00 | 100 | 896.8 |
| 20260505093929 | 17 | 214 | 40.2 | 67.6 | 0.00 | 0.00 | 0.00 | 100 | 896.3 |
| 20260505093728 | 17 | 218 | 38.6 | 67.6 | 0.00 | 0.00 | 0.00 | 100 | 896.4 |
| 20260505093526 | 17 | 213 | 40.2 | 70.8 | 0.00 | 0.00 | 0.00 | 100 | 896.4 |
| 20260505093425 | 17 | 211 | 41.8 | 70.8 | 0.00 | 0.00 | 0.00 | 100 | 896.4 |
| 20260505093224 | 17 | 208 | 43.5 | 70.8 | 0.00 | 0.00 | 0.00 | 100 | 896.1 |
| 20260505093014 | 17 | 220 | 40.2 | 70.8 | 0.00 | 0.00 | 0.00 | 100 | 896.1 |
| 20260505092911 | 17 | 226 | 38.6 | 70.8 | 0.00 | 0.00 | 0.00 | 100 | 896.1 |
| 20260505092736 | 17 | 220 | 37.0 | 61.2 | 0.00 | 0.00 | 0.00 | 100 | 896.9 |
| 20260505092534 | 17 | 220 | 37.0 | 62.8 | 0.00 | 0.00 | 0.00 | 100 | 896.6 |
| 20260505092334 | 17 | 213 | 37.0 | 62.8 | 0.00 | 0.00 | 0.00 | 100 | 896.5 |
| 20260505092233 | 17 | 213 | 35.4 | 62.8 | 0.00 | 0.00 | 0.00 | 100 | 896.5 |
| 20260505092033 | 17 | 212 | 38.6 | 66.0 | 0.00 | 0.00 | 0.00 | 100 | 896.7 |
| 20260505091856 | 16 | 215 | 40.2 | 66.0 | 0.00 | 0.00 | 0.00 | 100 | 896.3 |
| 20260505091655 | 17 | 219 | 35.4 | 64.4 | 0.00 | 0.00 | 0.00 | 100 | 896.8 |
| 20260505091454 | 17 | 212 | 35.4 | 64.4 | 0.00 | 0.00 | 0.00 | 100 | 896.8 |
| 20260505091354 | 17 | 211 | 33.8 | 57.9 | 0.00 | 0.00 | 0.00 | 100 | 896.8 |
| 20260505091156 | 17 | 214 | 38.6 | 64.4 | 0.00 | 0.00 | 0.00 | 100 | 896.5 |
| 20260505090956 | 16 | 221 | 41.8 | 70.8 | 0.00 | 0.00 | 0.00 | 100 | 896.5 |
| 20260505090755 | 16 | 222 | 43.5 | 70.8 | 0.00 | 0.00 | 0.00 | 100 | 896.5 |
| 20260505090551 | 16 | 218 | 45.1 | 70.8 | 0.00 | 0.00 | 0.00 | 100 | 896.1 |
| 20260505090246 | 17 | 224 | 40.2 | 70.8 | 0.00 | 0.00 | 0.00 | 100 | 896.2 |
| 20260505085931 | 16 | 213 | 40.2 | 69.2 | 0.00 | 0.00 | 0.00 | 100 | 896.8 |
| 20260505085420 | 16 | 209 | 40.2 | 64.4 | 0.00 | 0.00 | 0.00 | 100 | 896.5 |
| 20260505084912 | 16 | 220 | 40.2 | 66.0 | 0.00 | 0.00 | 0.00 | 100 | 896.4 |
| 20260505084736 | 16 | 223 | 38.6 | 66.0 | 0.00 | 0.00 | 0.00 | 100 | 896.4 |
| 20260505084233 | 16 | 220 | 43.5 | 72.4 | 0.00 | 0.00 | 0.00 | 100 | 896.5 |
| 20260505083920 | 16 | 219 | 45.1 | 75.6 | 0.00 | 0.00 | 0.00 | 100 | 896.0 |
| 20260505083412 | 16 | 215 | 46.7 | 72.4 | 0.00 | 0.00 | 0.00 | 100 | 896.1 |
| 20260505082901 | 16 | 216 | 48.3 | 86.9 | 0.00 | 0.00 | 0.00 | 100 | 896.0 |
| 20260505082804 | 16 | 216 | 45.1 | 86.9 | 0.00 | 0.00 | 0.00 | 100 | 896.0 |
| 20260505082603 | 16 | 215 | 43.5 | 86.9 | 0.00 | 0.00 | 0.00 | 100 | 896.1 |
| 20260505082359 | 16 | 216 | 46.7 | 70.8 | 0.00 | 0.00 | 0.00 | 100 | 896.1 |
| 20260505082201 | 16 | 218 | 48.3 | 70.8 | 0.00 | 0.00 | 0.00 | 100 | 896.1 |
| 20260505082001 | 16 | 219 | 41.8 | 70.8 | 0.00 | 0.00 | 0.00 | 100 | 896.3 |
| 20260505081857 | 16 | 219 | 41.8 | 67.6 | 0.00 | 0.00 | 0.00 | 100 | 896.8 |
| 20260505081800 | 16 | 219 | 41.8 | 67.6 | 0.00 | 0.00 | 0.00 | 100 | 896.8 |
| 20260505081559 | 16 | 225 | 45.1 | 75.6 | 0.00 | 0.00 | 0.00 | 100 | 896.6 |
| 20260505081356 | 16 | 219 | 46.7 | 77.2 | 0.00 | 0.00 | 0.00 | 100 | 896.5 |
| 20260505081158 | 16 | 214 | 45.1 | 78.9 | 0.00 | 0.00 | 0.00 | 100 | 896.4 |
| 20260505080957 | 16 | 215 | 48.3 | 78.9 | 0.00 | 0.00 | 0.00 | 100 | 896.3 |
| 20260505080854 | 16 | 215 | 49.9 | 78.9 | 0.00 | 0.00 | 0.00 | 100 | 896.2 |
| 20260505080757 | 16 | 218 | 48.3 | 77.2 | 0.00 | 0.00 | 0.00 | 100 | 896.2 |
| 20260505080556 | 16 | 220 | 43.5 | 77.2 | 0.00 | 0.00 | 0.00 | 100 | 896.5 |
| 20260505080351 | 16 | 212 | 40.2 | 72.4 | 0.00 | 0.00 | 0.00 | 100 | 896.9 |
| 20260505080154 | 16 | 213 | 46.7 | 72.4 | 0.00 | 0.00 | 0.00 | 100 | 896.5 |
| 20260505075953 | 15 | 221 | 45.1 | 72.4 | 0.00 | 0.00 | 0.00 | 100 | 896.1 |
| 20260505075848 | 15 | 218 | 45.1 | 72.4 | 0.00 | 0.00 | 0.00 | 100 | 896.2 |
| 20260505075751 | 15 | 217 | 45.1 | 74.0 | 0.00 | 0.00 | 0.00 | 100 | 896.2 |
| 20260505075341 | 16 | 214 | 45.1 | 72.4 | 0.00 | 0.00 | 0.00 | 100 | 896.1 |
| 20260505075117 | 15 | 219 | 41.8 | 70.8 | 0.00 | 0.00 | 0.00 | 100 | 896.3 |
| 20260505074613 | 16 | 220 | 38.6 | 62.8 | 0.00 | 0.00 | 0.00 | 100 | 896.8 |
| 20260505074444 | 16 | 219 | 37.0 | 62.8 | 0.00 | 0.00 | 0.00 | 100 | 896.8 |
| 20260505074105 | 16 | 212 | 37.0 | 62.8 | 0.00 | 0.00 | 0.00 | 100 | 896.7 |
| 20260505073600 | 16 | 207 | 38.6 | 64.4 | 0.00 | 0.00 | 0.00 | 100 | 896.5 |
| 20260505073052 | 15 | 213 | 43.5 | 72.4 | 0.00 | 0.00 | 0.00 | 100 | 896.6 |
| 20260505072841 | 15 | 222 | 41.8 | 70.8 | 0.00 | 0.00 | 0.00 | 100 | 896.4 |
| 20260505072524 | 15 | 217 | 41.8 | 67.6 | 0.00 | 0.00 | 0.00 | 100 | 896.4 |
| 20260505072019 | 15 | 208 | 43.5 | 74.0 | 0.00 | 0.00 | 0.00 | 100 | 896.6 |
| 20260505071600 | 15 | 210 | 40.2 | 74.0 | 0.00 | 0.00 | 0.00 | 100 | 896.9 |
| 20260505071054 | 15 | 213 | 43.5 | 69.2 | 0.00 | 0.00 | 0.00 | 100 | 896.6 |
| 20260505070854 | 15 | 216 | 45.1 | 67.6 | 0.00 | 0.00 | 0.00 | 100 | 896.5 |
| 20260505070653 | 15 | 220 | 45.1 | 77.2 | 0.00 | 0.00 | 0.00 | 100 | 896.6 |
| 20260505070550 | 15 | 220 | 45.1 | 77.2 | 0.00 | 0.00 | 0.00 | 100 | 896.7 |
| 20260505070206 | 15 | 221 | 45.1 | 74.0 | 0.00 | 0.00 | 0.00 | 100 | 897.0 |
| 20260505065601 | 15 | 217 | 38.6 | 69.2 | 0.00 | 0.00 | 0.00 | 100 | 896.7 |
| 20260505065050 | 15 | 213 | 40.2 | 69.2 | 0.00 | 0.00 | 0.00 | 100 | 896.8 |
| 20260505064539 | 15 | 214 | 41.8 | 67.6 | 0.00 | 0.00 | 0.00 | 100 | 896.5 |
| 20260505064404 | 15 | 215 | 40.2 | 61.2 | 0.00 | 0.00 | 0.00 | 100 | 896.1 |
| 20260505063859 | 15 | 210 | 35.4 | 64.4 | 0.00 | 0.00 | 0.00 | 100 | 896.6 |
| 20260505063620 | 15 | 210 | 41.8 | 72.4 | 0.00 | 0.00 | 0.00 | 100 | 896.3 |
| 20260505063116 | 15 | 215 | 38.6 | 64.4 | 0.00 | 0.00 | 0.00 | 100 | 896.7 |
| 20260505062836 | 15 | 212 | 43.5 | 75.6 | 0.00 | 0.00 | 0.00 | 100 | 896.5 |
| 20260505062332 | 15 | 207 | 40.2 | 75.6 | 0.00 | 0.00 | 0.00 | 100 | 896.8 |
| 20260505062156 | 15 | 209 | 40.2 | 75.6 | 0.00 | 0.00 | 0.00 | 100 | 896.5 |
| 20260505061654 | 15 | 208 | 45.1 | 72.4 | 0.00 | 0.00 | 0.00 | 100 | 896.4 |
| 20260505061511 | 15 | 210 | 43.5 | 72.4 | 0.00 | 0.00 | 0.00 | 100 | 896.7 |
| 20260505060941 | 14 | 206 | 41.8 | 70.8 | 0.00 | 0.00 | 0.00 | 100 | 896.7 |
| 20260505060732 | 14 | 205 | 40.2 | 70.8 | 0.00 | 0.00 | 0.00 | 100 | 896.7 |
| 20260505060419 | 14 | 206 | 45.1 | 72.4 | 0.00 | 0.00 | 0.00 | 100 | 896.6 |
| 20260505055909 | 14 | 211 | 41.8 | 69.2 | 0.00 | 0.00 | 0.00 | 100 | 896.7 |
| 20260505055637 | 14 | 209 | 43.5 | 74.0 | 0.00 | 0.00 | 0.00 | 100 | 896.5 |
| 20260505055133 | 14 | 206 | 41.8 | 74.0 | 0.00 | 0.00 | 0.00 | 100 | 896.6 |
| 20260505054809 | 13 | 208 | 40.2 | 70.8 | 0.00 | 0.00 | 0.00 | 100 | 896.6 |
| 20260505054259 | 13 | 206 | 37.0 | 61.2 | 0.00 | 0.00 | 0.00 | 100 | 897.0 |
| 20260505053948 | 13 | 208 | 40.2 | 74.0 | 0.00 | 0.00 | 0.00 | 100 | 896.8 |
| 20260505053430 | 13 | 211 | 40.2 | 61.2 | 0.00 | 0.00 | 0.00 | 100 | 896.9 |
| 20260505052919 | 13 | 205 | 41.8 | 67.6 | 0.00 | 0.00 | 0.00 | 100 | 896.8 |
| 20260505052513 | 13 | 210 | 40.2 | 67.6 | 0.00 | 0.00 | 0.00 | 100 | 896.8 |
| 20260505052407 | 13 | 205 | 40.2 | 67.6 | 0.00 | 0.00 | 0.00 | 100 | 896.7 |
| 20260505052307 | 13 | 203 | 40.2 | 67.6 | 0.00 | 0.00 | 0.00 | 100 | 896.7 |
| 20260505052106 | 13 | 206 | 41.8 | 67.6 | 0.00 | 0.00 | 0.00 | 100 | 896.5 |
| 20260505051905 | 13 | 207 | 38.6 | 66.0 | 0.00 | 0.00 | 0.00 | 100 | 896.3 |
| 20260505051705 | 13 | 205 | 37.0 | 59.5 | 0.00 | 0.00 | 0.00 | 100 | 896.1 |
| 20260505051504 | 13 | 204 | 37.0 | 59.5 | 0.00 | 0.00 | 0.00 | 100 | 896.1 |
| 20260505051403 | 13 | 204 | 35.4 | 53.1 | 0.00 | 0.00 | 0.00 | 100 | 896.5 |
| 20260505051304 | 13 | 208 | 33.8 | 59.5 | 0.00 | 0.00 | 0.00 | 100 | 899.5 |
| 20260505051103 | 13 | 210 | 37.0 | 59.5 | 0.00 | 0.00 | 0.00 | 100 | 896.5 |
| 20260505050859 | 13 | 209 | 37.0 | 67.6 | 0.00 | 0.00 | 0.00 | 100 | 896.0 |
| 20260505050503 | 13 | 210 | 35.4 | 59.5 | 0.00 | 0.00 | 0.00 | 100 | 896.1 |
| 20260505050303 | 13 | 206 | 35.4 | 59.5 | 0.00 | 0.00 | 0.00 | 100 | 896.8 |
| 20260505050103 | 13 | 205 | 35.4 | 56.3 | 0.00 | 0.00 | 0.00 | 100 | 896.5 |
| 20260505041701 | 13 | 208 | 33.8 | 67.6 | 0.00 | 0.00 | 0.00 | 100 | 896.2 |
| 20260505041500 | 13 | 207 | 35.4 | 67.6 | 0.00 | 0.00 | 0.00 | 100 | 898.2 |
| 20260505041357 | 13 | 207 | 33.8 | 61.2 | 0.00 | 0.00 | 0.00 | 100 | 900.2 |
| 20260505041259 | 13 | 207 | 33.8 | 61.2 | 0.00 | 0.00 | 0.00 | 100 | 896.6 |
| 20260505041058 | 13 | 205 | 33.8 | 54.7 | 0.00 | 0.00 | 0.00 | 100 | 898.9 |
| 20260505040855 | 13 | 209 | 35.4 | 54.7 | 0.00 | 0.00 | 0.00 | 100 | 897.5 |
| 20260505040655 | 13 | 210 | 35.4 | 56.3 | 0.00 | 0.00 | 0.00 | 100 | 895.4 |
| 20260505040455 | 13 | 207 | 32.2 | 56.3 | 0.00 | 0.00 | 0.00 | 100 | 895.4 |
| 20260505040352 | 13 | 207 | 30.6 | 56.3 | 0.00 | 0.00 | 0.00 | 100 | 895.2 |
| 20260505040132 | 13 | 209 | 32.2 | 56.3 | 0.00 | 0.00 | 0.00 | 100 | 905.0 |
| 20260505035627 | 13 | 208 | 32.2 | 53.1 | 0.00 | 0.00 | 0.00 | 100 | 895.1 |
| 20260505035404 | 13 | 211 | 32.2 | 54.7 | 0.00 | 0.00 | 0.00 | 100 | 896.8 |
| 20260505034748 | 13 | 214 | 33.8 | 57.9 | 0.00 | 0.00 | 0.00 | 100 | 895.1 |
| 20260505034142 | 13 | 208 | 33.8 | 57.9 | 0.00 | 0.00 | 0.00 | 100 | 899.0 |
| 20260505033941 | 13 | 208 | 32.2 | 53.1 | 0.00 | 0.00 | 0.00 | 100 | 900.7 |
| 20260505033736 | 12 | 208 | 29.0 | 51.5 | 0.00 | 0.00 | 0.00 | 100 | 895.0 |
| 20260505033539 | 13 | 211 | 32.2 | 53.1 | 0.00 | 0.00 | 0.00 | 100 | 903.5 |
| 20260505033336 | 13 | 210 | 33.8 | 56.3 | 0.00 | 0.00 | 0.00 | 100 | 895.0 |
| 20260505033232 | 13 | 210 | 33.8 | 56.3 | 0.00 | 0.00 | 0.00 | 100 | 895.0 |
| 20260505033135 | 13 | 211 | 33.8 | 56.3 | 0.00 | 0.00 | 0.00 | 100 | 895.0 |
| 20260505032934 | 13 | 211 | 35.4 | 53.1 | 0.00 | 0.00 | 0.00 | 100 | 896.2 |
| 20260505032730 | 13 | 212 | 33.8 | 51.5 | 0.00 | 0.00 | 0.00 | 100 | 901.5 |
| 20260505032532 | 13 | 213 | 30.6 | 49.9 | 0.00 | 0.00 | 0.00 | 100 | 895.1 |
| 20260505032331 | 13 | 212 | 29.0 | 48.3 | 0.00 | 0.00 | 0.00 | 100 | 902.5 |
| 20260505032227 | 13 | 212 | 29.0 | 48.3 | 0.00 | 0.00 | 0.00 | 100 | 902.5 |
| 20260505032131 | 13 | 210 | 30.6 | 49.9 | 0.00 | 0.00 | 0.00 | 100 | 895.2 |
| 20260505031930 | 13 | 209 | 32.2 | 59.5 | 0.00 | 0.00 | 0.00 | 100 | 895.2 |
| 20260505031729 | 13 | 210 | 30.6 | 59.5 | 0.00 | 0.00 | 0.00 | 100 | 895.8 |
| 20260505031527 | 13 | 209 | 32.2 | 57.9 | 0.00 | 0.00 | 0.00 | 100 | 895.4 |
| 20260505031326 | 13 | 208 | 29.0 | 53.1 | 0.00 | 0.00 | 0.00 | 100 | 895.8 |
| 20260505031222 | 13 | 209 | 29.0 | 48.3 | 0.00 | 0.00 | 0.00 | 100 | 895.8 |
| 20260505031125 | 13 | 209 | 30.6 | 48.3 | 0.00 | 0.00 | 0.00 | 100 | 900.9 |
| 20260505030925 | 13 | 209 | 32.2 | 56.3 | 0.00 | 0.00 | 0.00 | 100 | 899.9 |
| 20260505030721 | 13 | 215 | 30.6 | 56.3 | 0.00 | 0.00 | 0.00 | 100 | 898.1 |
| 20260505030524 | 13 | 215 | 29.0 | 54.7 | 0.00 | 0.00 | 0.00 | 100 | 897.0 |
| 20260505030324 | 13 | 211 | 29.0 | 51.5 | 0.00 | 0.00 | 0.00 | 100 | 896.0 |
| 20260505030219 | 13 | 210 | 29.0 | 48.3 | 0.00 | 0.00 | 0.00 | 100 | 897.2 |
| 20260505030122 | 13 | 209 | 29.0 | 48.3 | 0.00 | 0.00 | 0.00 | 100 | 897.2 |
| 20260505025922 | 13 | 209 | 30.6 | 48.3 | 0.00 | 0.00 | 0.00 | 100 | 897.5 |
| 20260505025718 | 13 | 206 | 29.0 | 54.7 | 0.00 | 0.00 | 0.00 | 100 | 898.4 |
| 20260505025508 | 13 | 205 | 29.0 | 54.7 | 0.00 | 0.00 | 0.00 | 100 | 896.3 |
| 20260505025307 | 13 | 211 | 29.0 | 48.3 | 0.00 | 0.00 | 0.00 | 100 | 899.1 |